Regional Weather Roundup
Issued by NWS Upton, NY

Current Version | Previous Version | Graphics & Text | Print | Product List | Glossary Off
Versions: 1 2 3 4 5 6 7 8 9 10 11 12 13 14 15 16 17 18 19 20 21 22 23 24 25 26 27 28 29 30 31 32 33 34 35 36 37 38 39 40 41 42 43 44 45 46 47 48 49 50

000
ASUS41 KOKX 252305
RWROKX

REGIONAL WEATHER ROUNDUP
NATIONAL WEATHER SERVICE NEW YORK NY
700 PM EDT FRI JUL 25 2014

NOTE: "FAIR" INDICATES FEW OR NO CLOUDS BELOW 12,000 FEET WITH NO
SIGNIFICANT WEATHER AND/OR OBSTRUCTIONS TO VISIBILITY.

NYZ071-072-176-178-NJZ106-104-260000-
NEW YORK CITY METRO AREA


CITY           SKY/WX    TMP DP  RH WIND       PRES   REMARKS
CENTRAL PARK     N/A     77  55  47 MISG        N/A
LAGUARDIA APRT MOSUNNY   79  58  48 S10       29.96S
KENNEDY INTL   MOSUNNY   75  61  61 S15       29.98S
NEWARK/LIBERTY MOSUNNY   80  58  46 S8        29.96S
BRNX BOT. GARD   N/A     79  54  41 S2        29.99S
TETERBORO      SUNNY     83  51  33 CALM      29.95S
$$

NYZ177-179-078>081-260000-
LONG ISLAND NEW YORK

CITY           SKY/WX    TMP DP  RH WIND       PRES   REMARKS
FARMINGDALE    SUNNY     74  60  61 S10       29.98S
ISLIP          MOSUNNY   76  57  51 SW7       29.97R
SHIRLEY        SUNNY     74  60  61 SW9       29.99R
WESTHAMPTON    SUNNY     73  59  61 SW6       30.00R
MONTAUK POINT    N/A     73  62  68 S6        29.99R
$$

NYZ052-065-067-260000-
HUDSON VALLEY

CITY           SKY/WX    TMP DP  RH WIND       PRES   REMARKS
WHITE PLAINS   MOSUNNY   75  56  51 CALM      29.98S
NEWBURGH       NOT AVBL
MONTGOMERY     SUNNY     77  57  50 S6        29.97S
POUGHKEEPSIE   SUNNY     78  57  48 S3        29.96S
ALBANY         MOSUNNY   78  57  48 W6        29.94S
$$

NJZ001-105-106-008-010-013-015-019>022-104-260000-
NEW JERSEY

CITY           SKY/WX    TMP DP  RH WIND       PRES   REMARKS
NEWARK/LIBERTY MOSUNNY   80  58  46 S8        29.96S
TETERBORO      SUNNY     83  51  33 CALM      29.95S
CALDWELL       SUNNY     80  53  39 CALM      29.98S
MORRISTOWN     NOT AVBL
SOMERVILLE     NOT AVBL
LINDEN         FAIR      82  57  42 S6        29.99R
SUSSEX         SUNNY     78  57  48 CALM      29.99S
ANDOVER          N/A     76  57  51 SW3       30.00R
TRENTON        SUNNY     80  52  37 CALM      29.97S
MILLVILLE      SUNNY     78  55  44 SW5       30.01R
ATLANTIC CITY  SUNNY     75  64  68 SE9       30.01R
WRIGHTSTOWN    SUNNY     77  61  56 S10       29.97R
TOMS RIVER     SUNNY     75  59  57 S7        30.00F
BELMAR         SUNNY     75  57  53 S6        30.00S
$$

PAZ047>061-062-071-260000-
EASTERN PENNSYLVANIA

CITY           SKY/WX    TMP DP  RH WIND       PRES   REMARKS
PHILADELPHIA   MOSUNNY   82  54  37 SW10      29.99R
ALLENTOWN      SUNNY     78  55  44 W6        29.99R
SCRANTON       SUNNY     79  49  34 CALM      29.99S
$$

CTZ002-004>006-009-010-012-RIZ004-006-007-MAZ004-011-015-260000-
SOUTHERN NEW ENGLAND
 IN CT

CITY           SKY/WX    TMP DP  RH WIND       PRES   REMARKS
BRADLEY INTL   SUNNY     80  56  43 NW5       29.94S
HARTFORD       SUNNY     80  52  37 W6        29.95R
DANBURY        SUNNY     75  57  53 SW6       29.99S
WTRBRY/OXFORD  SUNNY     75  55  50 CALM      30.01S
BRIDGEPORT     SUNNY     78  59  51 SW10      29.97R
MERIDEN        SUNNY     77  60  55 SW3       29.96R
NEW HAVEN      SUNNY     78  60  53 SW5       29.97R
CHESTER        FAIR      73  61  64 SW3       29.98S
GROTON         SUNNY     74  57  55 W7        29.96R
WILLIMANTIC    SUNNY     79  57  46 W3        29.96S

 IN RI

CITY           SKY/WX    TMP DP  RH WIND       PRES   REMARKS
PROVIDENCE     MOSUNNY   79  55  43 W7        29.95S
BLOCK ISLAND   SUNNY     72  57  60 SW9       29.98S
WESTERLY       SUNNY     75  60  59 S8        29.98R

 IN MA

CITY           SKY/WX    TMP DP  RH WIND       PRES   REMARKS
BOSTON         PTSUNNY   80  54  40 W9        29.92F
WORCESTER      SUNNY     74  57  55 W6        29.98F
WESTFIELD      SUNNY     79  56  45 W6        29.95S
PROVINCETOWN   SUNNY     72  54  53 S9        29.95F
NANTUCKET      SUNNY     68  62  81 SW8       29.97S
$$

ANZ330-335-338-340-345-350-353-355-260000-
COASTAL MARINE OBSERVATIONS


STATION/POSITION TIME  SKY/WX   TEMP    WIND        PRES    VSBY  WAVE
                                AIR SEA DIR/SP/G                  HT/PER
                 (UTC)          (F)     (DEG/KT/KT) (MB)    (MI)  (FT/S)
NY HARB ENTRANCE NOT AVBL
4S FIRE IS       NOT AVBL
23SW MTP         2300            72 72              1014.7          2/ 8
HUDSON CANYON    2300            74 76  200/  4/  4 1015.7          2/ 8
EXECUTION ROCKS  2300            78 72   90/  4/  6   N/A
WESTERN LI SOUND 2300            78     140/  2/  4   N/A           0
CENTRAL LI SOUND 2300            75 74  230/  8/ 10   N/A           1/ 2
EASTERN LI SOUND 2200            72 68  230/  6/  8   N/A
ROBBINS REEF     2300            78     190/ 14/ 17   N/A
$$


>>>>>>>>>>>>>>>>>>>>>>>>>>>> KEY <<<<<<<<<<<<<<<<<<<<<<<<<<<
>                                                          <
>     SKY/WX - SKY CONDITION/PRESENT WEATHER               <
>     TMP    - TEMPERATURE IN FAHRENHEIT                   <
>     DP     - DEWPOINT IN FAHRENHEIT                      <
>     RH     - RELATIVE HUMIDITY IN PERCENT                <
>     WIND   - DIRECTION AND SPEED IN MPH                  <
>     PRES   - MEAN SEA LEVEL PRESSURE IN INCHES OF HG     <
>     WCI    - WIND CHILL INDEX                            <
>     VSB    - VISIBILITY IN MILES                         <
>     HX     - HEAT INDEX                                  <
>     TC     - TEMPERATURE IN CELSIUS                      <
>     VRB    - VARIABLE WIND DIRECTION                     <
>                                                          <
>>>>>>>>>>>>>>>>>>>>>>>>>>>> KEY <<<<<<<<<<<<<<<<<<<<<<<<<<<





USA.gov is the U.S. government's official web portal to all federal, state and local government web resources and services.